Weather in Shediac

Canada     46°13′12″N   64°32′35″W
temp.,
°C
wind,
m/s
gust,
m/s
humid.,
%
clouds,
%
prec.,
mm/h
press.,
hPa
HPBL,
m
24 january, mon
mon2423:00−7sw2592100 0.0 100885
02:00−7w2393100 0.0 100964
05:00−8nw3591100 0.0 1010164
08:00−12nnw259383 0.0 101178
11:00−11nnw34775 0.0 1013271
14:00−10n23745 0.0 1012402
17:00−14ene22895 0.0 101310
20:00−18s11926 0.0 10169
25 january, tue
tue2523:00−20sw229811 0.0 101723
02:00−18w2296100 0.0 101740
05:00−13ese0086100 0.0 101757
08:00−11ese2595100 0.1 1018171
11:00−7ese61392100 0.3 1015454
14:000sse61499100 0.8 10101028
17:00+1s3999100 2.1 1010640
20:00+1ssw3899100 3.7 1009513
26 january, wed
wed2623:00−5nnw3696100 3.6 1011277
02:00−8nw2497100 4.1 101274
05:00−15nw119843 0.0 101310
08:00−17nw239878 0.0 101438
11:00−10nnw4783100 0.0 1015303
14:00−8n4690100 0.1 1014550
17:00−10nnw5893100 0.4 1017588
20:00−14nw51183100 0.4 1020493
27 january, thu
thu2723:00−16nw61194100 0.1 1020354
02:00−17wnw61394100 0.5 1021322
05:00−18wnw6129499 0.0 1024305
08:00−22w49895 0.0 1027185
11:00−17w35750 0.0 1028300
14:00−13wsw35714 0.0 1026531
17:00−14sw368213 0.0 1025107
20:00−15sw3108374 0.0 1026212
28 january, fri
fri2823:00−12ssw31185100 0.0 1024319
02:00−8s3894100 0.1 1022234
05:00−5ssw3895100 0.2 1020251
08:00−4w3886100 0.3 1020306
11:00−4wsw41186100 0.0 1021763
14:00−2wsw41088100 0.2 1019801
17:00−3nw1298100 0.6 101978
20:00−5nnw1297100 1.3 102156